Location: Favalello
(42.2939°N, 9.2706°E)
Time: 14:40:52
(UTC+00:00)

YAOGAN 1 - Pass Details

Date: 06 December 2019
Orbit: 619 x 621 km, 98.0° (Epoch: 22 January)

Event Time Altitude Azimuth Distance (km) Brightness Sun altitude
Rises 17:59:04 0° 170° (S) 2,882 6.0 -23.0°
Reaches altitude 10° 18:01:14 10° 172° (S) 1,981 5.2 -23.4°
Maximum altitude 18:05:33 74° 258° (WSW) 650 2.7 -24.2°
Drops below altitude 10° 18:09:53 10° 344° (NNW) 1,997 5.2 -25.0°
Sets 18:12:06 0° 346° (NNW) 2,908 6.1 -25.4°
